Preview of NWS' New Version of Forecast
This preview is not operational and should not be used for support decisions.

Regional Weather Roundup (RWR)

Issued by National Weather Service (NWS)

                            
000
ASUS45 KCYS 231710
RWRWY 

WYOMING REGIONAL WEATHER ROUNDUP
NATIONAL WEATHER SERVICE CHEYENNE WY
1100 AM MDT SUN JUN 23 2019

NOTE:  "FAIR" INDICATES FEW OR NO CLOUDS BELOW 12,000 FEET
WITH NO SIGNIFICANT WEATHER AND/OR OBSTRUCTIONS TO VISIBILITY.

WYZ001-231800-
YELLOWSTONE NATIONAL PARK
  
CITY           SKY/WX    TMP DP  RH WIND       PRES   REMARKS
LK YELLOWSTONE   N/A     46  37  71 VRB3      30.17R                  
W YELLOWSTONE  NOT AVBL                                               

$$
WYZ002>013-054>058-071-098>099-231800-
NORTHERN WYOMING
  
CITY           SKY/WX    TMP DP  RH WIND       PRES   REMARKS
JACKSON        PTSUNNY   54  36  50 S6        30.13F                  
CODY           PTSUNNY   67  35  30 SW7       30.01F                  
GREYBULL       FAIR      66  38  35 VRB7      29.98F                  
WORLAND        FAIR      66  36  32 VRB3      30.00F                  
SHERIDAN       FAIR      68  41  37 VRB3      29.97F                  
BUFFALO        PTSUNNY   63  39  41 SE6       30.02F                  
GILLETTE       FAIR      64  45  49 MISG      29.99F                  
HULETT         FAIR      63  45  51 W6        29.99F                  
NEWCASTLE      FAIR      59  41  51 SW3       30.02F                  

$$
WYZ014>020-022>026-101>103-231800-
CENTRAL WYOMING
  
CITY           SKY/WX    TMP DP  RH WIND       PRES   REMARKS
BIG PINEY      CLOUDY    52  33  48 MISG      30.17S                  
PINEDALE       PTSUNNY   55  30  38 NW14G20   30.16                   
DUBOIS         CLOUDY    54  27  35 NW13      30.11S                  
LANDER         FAIR      61  38  42 S7        30.06F                  
RIVERTON       FAIR      61  32  33 CALM      30.07F                  
CASPER         FAIR      58  45  62 SW10      30.07F                  
DOUGLAS        CLOUDY    51  46  83 SW7       30.09S                  

$$
WYZ021-027>030-104>119-231800-
SOUTHERN WYOMING
  
CITY           SKY/WX    TMP DP  RH WIND       PRES   REMARKS
EVANSTON       FAIR      56  30  37 SW18G25   30.20F                  
KEMMERER       FAIR      54  28  37 W12G20    30.20S                  
FORT BRIDGER   SUNNY     59  32  36 W12G22    30.22                   
ROCK SPRINGS   FAIR      57  31  37 W10G16    30.16F                  
DIXON          CLOUDY    49  39  68 S5        30.21F                  
RAWLINS        FAIR      53  39  59 SW15G21   30.14F                  
SARATOGA       CLOUDY    48  37  66 W12G20    30.16S                  
LARAMIE        LGT RAIN  39  36  89 NW23      30.11S WCI  28          
CHEYENNE       FAIR      52  37  56 NW14      30.08R                  
TORRINGTON     LGT RAIN  50  50 100 S8        30.04R FOG              
PINE BLUFFS    CLOUDY    55  41  58 N14G21    30.05R                  

$$